Location: Budapest
(47.4979°N, 19.0402°E)
Time: 16:59:33
(UTC+02:00)

Envisat - Pass Details

Date: 10 October 2017
Orbit: 764 x 766 km, 98.2° (Epoch: 23 October)

Event Time Altitude Azimuth Distance (km) Brightness Sun altitude
Exits shadow 18:46:36 - 95° (E) 2,366 4.9 -7.8°
Reaches altitude 10° 18:46:52 10° 92° (E) 2,305 4.8 -7.8°
Maximum altitude 18:49:48 16° 57° (ENE) 1,940 4.6 -8.3°
Drops below altitude 10° 18:52:45 10° 21° (NNE) 2,313 5.3 -8.8°
Sets 18:55:55 0° 0° (N) 3,244 6.3 -9.3°
